Weather History for Hamilton, TX

Change the Weather History Date:

Wednesday, January 2, 2013

  Actual Average (KACT) Record (KACT)
Temperature  
Mean Temperature 36 °F 47 °F  
Max Temperature 43 °F 57 °F 80 °F (2009)
Min Temperature 29 °F 36 °F 11 °F (1979)
Degree Days  
Heating Degree Days 29 19  
Month to date heating degree days 38  
Since 1 July heating degree days 890  
Cooling Degree Days 0 0  
Month to date cooling degree days 0  
Year to date cooling degree days 0  
Moisture  
Dew Point 26 °F    
Average Humidity 72    
Maximum Humidity 96    
Minimum Humidity 48    
Precipitation  
Precipitation 0.00 in 0.08 in 1.38 in (2005)
Month to date precipitation 0.15  
Year to date precipitation 0.15  
Snow  
Snow 0.00 in 0.00 in 0.40 in (1985)
Month to date snowfall 0.0  
Since 1 July snowfall 0.1  
Snow Depth -    
Sea Level Pressure  
Sea Level Pressure 30.29 in    
Wind  
Wind Speed 6 mph (NNW)    
Max Wind Speed 12 mph    
Max Gust Speed -    
Visibility 10 miles    
Events      
T = Trace of Precipitation, MM = Missing Value Source: NWS Daily Summary

Daily Weather History Graph

Daily Weather History Graph

Search for Another Location

Airport:

Trip Planner

Search our weather history database for the weather conditions in past years. The results will help you decide how hot, cold, wet, or windy it might be!

Date:

Astronomy

Jan. 02, 2013 Rise Set
Actual Time 7:32 AM CST 5:41 PM CST
Civil Twilight 7:05 AM CST 6:07 PM CST
Nautical Twilight 6:35 AM CST 6:38 PM CST
Astronomical Twilight 6:05 AM CST 7:07 PM CST
Moon 10:53 PM CST (1/2) 10:35 AM CST (1/2)
Length of Visible Light 11h 02m
Length of Day
10h 08m
Waning Gibbous, 75% of the Moon is Illuminated
Jan 2
Waning Gibbous
Jan 4
Last Quarter
Jan 11
New
Jan 18
First Quarter
Jan 26
Full

Hourly Weather History & Observations

Time (CST) Temp. Windchill Dew Point Humidity Pressure Visibility Wind Dir Wind Speed Gust Speed Precip Events Conditions
12:15 AM 30.2 °F 24.3 °F 27.5 °F 90% 30.28 in 10.0 mi North 5.8 mph - N/A   Clear
12:35 AM 29.5 °F 24.5 °F 27.9 °F 94% 30.28 in 7.0 mi North 4.6 mph - N/A   Clear
12:55 AM 29.5 °F 23.4 °F 28.6 °F 96% 30.28 in 10.0 mi North 5.8 mph - N/A   Clear
1:15 AM 30.0 °F 23.2 °F 28.0 °F 92% 30.28 in 10.0 mi NNW 6.9 mph - N/A   Clear
1:35 AM 30.2 °F 22.6 °F 27.9 °F 91% 30.28 in 10.0 mi NNW 8.1 mph - N/A   Clear
2:15 AM 30.2 °F 22.6 °F 27.5 °F 90% 30.27 in 10.0 mi NNW 8.1 mph - N/A   Clear
2:35 AM 30.4 °F 22.2 °F 27.5 °F 89% 30.27 in 10.0 mi NNW 9.2 mph - N/A   Clear
2:55 AM 30.6 °F 23.8 °F 27.3 °F 88% 30.28 in 10.0 mi NNW 6.9 mph - N/A   Clear
3:15 AM 30.6 °F 23.1 °F 27.3 °F 88% 30.27 in 10.0 mi NNW 8.1 mph - N/A   Clear
3:35 AM 30.2 °F 23.4 °F 27.3 °F 89% 30.27 in 10.0 mi NNW 6.9 mph - N/A   Clear
4:15 AM 30.4 °F 25.6 °F 27.1 °F 88% 30.28 in 10.0 mi NNW 4.6 mph - N/A   Clear
4:35 AM 30.2 °F 24.3 °F 27.1 °F 88% 30.29 in 10.0 mi NNW 5.8 mph - N/A   Clear
5:15 AM 29.8 °F 22.2 °F 27.3 °F 90% 30.27 in 10.0 mi NNW 8.1 mph - N/A   Clear
5:35 AM 29.8 °F 22.2 °F 27.5 °F 91% 30.27 in 10.0 mi NNW 8.1 mph - N/A   Clear
5:55 AM 30.0 °F 23.2 °F 27.3 °F 90% 30.28 in 10.0 mi NNW 6.9 mph - N/A   Clear
6:15 AM 30.0 °F 23.2 °F 27.3 °F 90% 30.28 in 10.0 mi NW 6.9 mph - N/A   Clear
6:35 AM 30.0 °F 23.2 °F 27.3 °F 90% 30.28 in 10.0 mi NNW 6.9 mph - N/A   Clear
6:55 AM 30.0 °F 23.2 °F 27.1 °F 89% 30.28 in 10.0 mi NNW 6.9 mph - N/A   Clear
7:15 AM 30.2 °F 23.4 °F 27.1 °F 88% 30.29 in 10.0 mi NNW 6.9 mph - N/A   Clear
7:35 AM 30.0 °F 24.1 °F 27.1 °F 89% 30.30 in 7.0 mi NW 5.8 mph - N/A   Clear
7:55 AM 30.0 °F 24.1 °F 27.1 °F 89% 30.31 in 7.0 mi NW 5.8 mph - N/A   Clear
8:15 AM 30.2 °F 23.4 °F 27.0 °F 88% 30.31 in 7.0 mi NW 6.9 mph - N/A   Clear
8:35 AM 30.6 °F 23.8 °F 27.3 °F 88% 30.32 in 7.0 mi NW 6.9 mph - N/A   Clear
9:15 AM 31.5 °F 22.3 °F 27.0 °F 83% 30.33 in 10.0 mi NNW 11.5 mph - N/A   Clear
9:35 AM 32.0 °F 23.6 °F 26.6 °F 80% 30.33 in 10.0 mi NNW 10.4 mph - N/A   Clear
9:55 AM 32.2 °F 23.2 °F 26.4 °F 79% 30.33 in 10.0 mi NW 11.5 mph - N/A   Clear
10:15 AM 32.7 °F 24.5 °F 26.4 °F 78% 30.34 in 10.0 mi NNW 10.4 mph - N/A   Clear
10:35 AM 33.4 °F 25.4 °F 26.4 °F 75% 30.34 in 10.0 mi NNW 10.4 mph - N/A   Clear
10:55 AM 34.0 °F 26.6 °F 26.4 °F 74% 30.34 in 10.0 mi NNW 9.2 mph - N/A   Clear
11:15 AM 34.7 °F 26.9 °F 26.2 °F 71% 30.33 in 10.0 mi NNW 10.4 mph - N/A   Clear
11:35 AM 35.8 °F 29.4 °F 26.2 °F 68% 30.32 in 10.0 mi NNW 8.1 mph - N/A   Clear
11:55 AM 37.0 °F 29.8 °F 26.1 °F 65% 30.31 in 10.0 mi NW 10.4 mph - N/A   Clear
12:15 PM 37.2 °F 31.9 °F 25.7 °F 63% 30.31 in 10.0 mi North 6.9 mph - N/A   Clear
12:35 PM 37.8 °F 31.8 °F 25.5 °F 61% 30.30 in 10.0 mi NNW 8.1 mph - N/A   Clear
1:15 PM 38.7 °F 32.4 °F 25.0 °F 58% 30.27 in 10.0 mi NNW 9.2 mph - N/A   Clear
1:35 PM 39.2 °F 34.2 °F 25.2 °F 57% 30.26 in 10.0 mi NNW 6.9 mph - N/A   Clear
1:55 PM 39.7 °F 33.2 °F 25.2 °F 56% 30.26 in 10.0 mi NNW 10.4 mph - N/A   Clear
2:15 PM 40.5 °F 34.1 °F 25.2 °F 54% 30.25 in 10.0 mi North 10.4 mph - N/A   Clear
2:35 PM 41.0 °F 34.7 °F 25.2 °F 53% 30.24 in 10.0 mi North 10.4 mph - N/A   Clear
2:55 PM 41.5 °F 35.9 °F 25.0 °F 52% 30.24 in 10.0 mi North 9.2 mph - N/A   Clear
3:15 PM 42.1 °F 37.1 °F 24.8 °F 50% 30.24 in 10.0 mi North 8.1 mph - N/A   Clear
3:35 PM 42.6 °F 37.8 °F 25.0 °F 50% 30.24 in 10.0 mi North 8.1 mph - N/A   Clear
3:55 PM 43.0 °F 39.5 °F 24.4 °F 48% 30.25 in 10.0 mi NNW 5.8 mph - N/A   Clear
4:15 PM 43.2 °F 39.7 °F 24.4 °F 48% 30.24 in 10.0 mi NNE 5.8 mph - N/A   Clear
4:35 PM 43.0 °F 39.5 °F 24.6 °F 48% 30.25 in 10.0 mi North 5.8 mph - N/A   Clear
4:55 PM 42.8 °F 40.1 °F 24.6 °F 49% 30.24 in 10.0 mi NNE 4.6 mph - N/A   Clear
5:15 PM 42.6 °F 39.9 °F 24.3 °F 48% 30.25 in 10.0 mi NE 4.6 mph - N/A   Clear
5:35 PM 41.7 °F - 24.4 °F 50% 30.25 in 10.0 mi Calm Calm - N/A   Clear
5:55 PM 40.8 °F - 24.8 °F 53% 30.26 in 10.0 mi Calm Calm - N/A   Clear
6:15 PM 40.1 °F - 24.8 °F 54% 30.27 in 10.0 mi Calm Calm - N/A   Clear
6:35 PM 39.7 °F - 24.6 °F 55% 30.27 in 10.0 mi Calm Calm - N/A   Clear
6:55 PM 39.2 °F - 24.4 °F 56% 30.28 in 10.0 mi Calm Calm - N/A   Clear
7:15 PM 38.7 °F - 24.6 °F 57% 30.28 in 10.0 mi Calm Calm - N/A   Clear
7:35 PM 38.1 °F - 24.6 °F 58% 30.29 in 10.0 mi Calm Calm - N/A   Clear
7:55 PM 37.6 °F - 24.8 °F 60% 30.29 in 10.0 mi Calm Calm - N/A   Clear
8:35 PM 36.7 °F - 24.8 °F 62% 30.29 in 10.0 mi Calm Calm - N/A   Clear
8:55 PM 34.7 °F - 24.4 °F 66% 30.29 in 10.0 mi Calm Calm - N/A   Clear
9:15 PM 32.9 °F - 23.9 °F 69% 30.30 in 10.0 mi Calm Calm - N/A   Clear
9:55 PM 32.7 °F 29.6 °F 24.1 °F 71% 30.30 in 10.0 mi North 3.5 mph - N/A   Clear
10:15 PM 32.4 °F - 23.9 °F 71% 30.31 in 10.0 mi Calm Calm - N/A   Clear
10:35 PM 32.9 °F - 24.4 °F 71% 30.31 in 10.0 mi Calm Calm - N/A   Clear
10:55 PM 33.4 °F - 24.6 °F 70% 30.32 in 10.0 mi Calm Calm - N/A   Clear
11:15 PM 34.7 °F - 24.8 °F 67% 30.32 in 10.0 mi Calm Calm - N/A   Clear
11:35 PM 32.2 °F 28.9 °F 24.1 °F 72% 30.33 in 10.0 mi West 3.5 mph - N/A   Clear
11:55 PM 30.4 °F 25.6 °F 23.5 °F 76% 30.32 in 10.0 mi West 4.6 mph - N/A   Clear